Find Starlink 30571

NORAD ID: 58066 Int'l Des: 2023-158 Owner: SPXS Country: US Constellation: starlink operational
LEOCIRCULAR

Live Position

Loading 3D Globe...

About Starlink 30571

Description loading...

Upcoming Passes

Passes for default location (London). Set your location on the main map for personalized predictions.

Altitude History

Loading altitude history...

Two-Line Element Set

1 58066U 23158R 26129.47332876 -.00000271 00000-0 -31412-6 0 9993
2 58066 43.0024 43.9729 0000891 257.5717 102.5035 15.27580671142865
Epoch: May 9, 2026 • Age: 15 hours

Current Status

Altitude 492.9 km
Velocity 7.62 km/s
Sub-Earth Point -35.97°S, 5.33°E
Launch Date Oct 13, 2023
Age 2.5 years
Type internet

Technical Details

Classification Payload
Mass 730.00 kg
Dry Mass 700.00 kg
Total Mass 730.00 kg
Length 0.30 m
Diameter 4.10 m
Span 29.00 m
Shape Box + pan
Manufacturer SPXS
Bus Type Starlink V2M
Phase Status In Orbit
Owner/State SPXS/US

Most Searched